{"data":{"norad_id":50161,"intl_designator":"2021-125F","name":"STARLINK-3304","alt_names":[],"object_type":"PAYLOAD","status":"ACTIVE","operator":null,"country":"US","launch_date":"2021-12-18","launch_site_code":"AFWTR","launch_vehicle":null,"mission":null,"orbit_class":"UNKNOWN","rcs_meters":null,"size_class":null,"mass_kg":null,"dimensions":null,"purposes":["comms"],"wikipedia_slug":null,"has_3d_model":false,"image_url":null,"decayed_at":null,"tle_current":{"epoch":"2026-05-25T01:55:36.873696Z","epoch_age_seconds":78635,"freshness":"FRESH","line1":"1 50161U 21125F   26145.08028789  .00000332  00000+0  38950-4 0  9990","line2":"2 50161  53.2142 276.1887 0001090  91.7972 268.3145 15.08837741247989","mean_motion":15.08837741,"eccentricity":0.000109,"inclination_deg":53.2142,"raan_deg":276.1887,"arg_perigee_deg":91.7972,"mean_anomaly_deg":268.3145,"bstar":3.895e-5,"rev_number":24798,"period_min":95.437697564857,"perigee_km":538.99624411696,"apogee_km":540.50434354702,"semimajor_km":6917.887293832,"source":"CELESTRAK","updated_at":"2026-05-25T13:38:16.842154Z"}}}